International Skating Union - Official Site

Essent ISU World Cup Berlin
November 19-21, 2010

Draw | Lap Times | Index | World Cup

Referee: Jan  AUGUSTINUS  (NED)
Starter: Hartmut  WEIRAUCH  (GER)
StartTime: EndTime: Air Temp: Ice Temp: Humidity:
12:50 14:10 13.9℃ -5.4℃ 32%
Result 5000m Men Division B
Rankings as of Nov 21 2010 1:48PM
Rank: No.: Name: Nation: Time: Behind: Points:
1 9 Lucas  MAKOWSKY CAN CAN 6:25.55200m - 19.05 - (19.0)
600m - 48.83 - (29.7)
1000m - 1:18.91 - (30.0)
1400m - 1:49.08 - (30.1)
1800m - 2:19.32 - (30.2)
2200m - 2:49.51 - (30.1)
2600m - 3:19.84 - (30.3)
3000m - 3:50.16 - (30.3)
3400m - 4:20.59 - (30.4)
3800m - 4:51.07 - (30.4)
4200m - 5:21.99 - (30.9)
4600m - 5:53.03 - (31.0)
5000m - 6:25.55 - (32.5)
25
2 107 Sverre  LUNDE PEDERSEN NOR NOR 6:29.65200m - 19.49 - (19.4)
600m - 49.93 - (30.4)
1000m - 1:20.90 - (30.9)
1400m - 1:51.77 - (30.8)
1800m - 2:22.77 - (31.0)
2200m - 2:53.52 - (30.7)
2600m - 3:24.39 - (30.8)
3000m - 3:55.23 - (30.8)
3400m - 4:26.07 - (30.8)
3800m - 4:56.78 - (30.7)
4200m - 5:27.67 - (30.8)
4600m - 5:58.75 - (31.0)
5000m - 6:29.65 - (30.9)
4.10 19
3 42 Marco  WEBER GER GER 6:33.09200m - 19.43 - (19.4)
600m - 49.31 - (29.8)
1000m - 1:19.71 - (30.3)
1400m - 1:50.35 - (30.6)
1800m - 2:21.27 - (30.9)
2200m - 2:52.46 - (31.1)
2600m - 3:23.81 - (31.3)
3000m - 3:55.11 - (31.3)
3400m - 4:27.06 - (31.9)
3800m - 4:59.02 - (31.9)
4200m - 5:30.84 - (31.8)
4600m - 6:02.32 - (31.4)
5000m - 6:33.09 - (30.7)
7.54 15
4 77 Haralds  SILOVS LAT LAT 6:33.32200m - 19.36 - (19.3)
600m - 49.58 - (30.2)
1000m - 1:20.96 - (31.3)
1400m - 1:51.88 - (30.9)
1800m - 2:22.77 - (30.8)
2200m - 2:53.69 - (30.9)
2600m - 3:24.74 - (31.0)
3000m - 3:55.88 - (31.1)
3400m - 4:26.97 - (31.0)
3800m - 4:58.12 - (31.1)
4200m - 5:29.45 - (31.3)
4600m - 6:01.05 - (31.6)
5000m - 6:33.32 - (32.2)
7.77 11
5 61 Norimasa  ZAIKE JPN JPN 6:33.36200m - 19.44 - (19.4)
600m - 50.01 - (30.5)
1000m - 1:20.01 - (30.0)
1400m - 1:50.22 - (30.2)
1800m - 2:20.58 - (30.3)
2200m - 2:51.06 - (30.4)
2600m - 3:21.96 - (30.9)
3000m - 3:53.50 - (31.5)
3400m - 4:25.29 - (31.7)
3800m - 4:57.53 - (32.2)
4200m - 5:29.37 - (31.8)
4600m - 6:01.59 - (32.2)
5000m - 6:33.36 - (31.7)
7.81 8
6 44 Tobias  SCHNEIDER GER GER 6:34.65200m - 19.95 - (19.9)
600m - 49.40 - (29.4)
1000m - 1:20.63 - (31.2)
1400m - 1:52.32 - (31.6)
1800m - 2:23.50 - (31.1)
2200m - 2:54.99 - (31.4)
2600m - 3:26.37 - (31.3)
3000m - 3:57.62 - (31.2)
3400m - 4:28.40 - (30.7)
3800m - 4:59.55 - (31.1)
4200m - 5:30.96 - (31.4)
4600m - 6:02.85 - (31.8)
5000m - 6:34.65 - (31.8)
9.10 6
7 41 Robert  LEHMANN GER GER 6:37.49200m - 19.33 - (19.3)
600m - 49.74 - (30.4)
1000m - 1:20.61 - (30.8)
1400m - 1:51.75 - (31.1)
1800m - 2:22.83 - (31.0)
2200m - 2:54.08 - (31.2)
2600m - 3:25.88 - (31.8)
3000m - 3:57.62 - (31.7)
3400m - 4:29.32 - (31.7)
3800m - 5:01.75 - (32.4)
4200m - 5:33.52 - (31.7)
4600m - 6:05.25 - (31.7)
5000m - 6:37.49 - (32.2)
11.94 4
8 45 Moritz  GEISREITER GER GER 6:38.61200m - 19.63 - (19.6)
600m - 50.40 - (30.7)
1000m - 1:21.49 - (31.0)
1400m - 1:53.09 - (31.6)
1800m - 2:24.66 - (31.5)
2200m - 2:56.28 - (31.6)
2600m - 3:27.76 - (31.4)
3000m - 3:59.49 - (31.7)
3400m - 4:31.14 - (31.6)
3800m - 5:03.01 - (31.8)
4200m - 5:34.76 - (31.7)
4600m - 6:06.66 - (31.9)
5000m - 6:38.61 - (31.9)
13.06 2
9 129 Joel  ERIKSSON SWE SWE 6:38.88200m - 18.92 - (18.9)
600m - 49.63 - (30.7)
1000m - 1:20.94 - (31.3)
1400m - 1:52.30 - (31.3)
1800m - 2:23.44 - (31.1)
2200m - 2:54.56 - (31.1)
2600m - 3:26.02 - (31.4)
3000m - 3:57.63 - (31.6)
3400m - 4:29.13 - (31.5)
3800m - 5:00.85 - (31.7)
4200m - 5:33.14 - (32.2)
4600m - 6:05.82 - (32.6)
5000m - 6:38.88 - (33.0)
13.33 1
10 14 Justin  WARSYLEWICZ CAN CAN 6:40.10200m - 19.20 - (19.2)
600m - 49.34 - (30.1)
1000m - 1:20.27 - (30.9)
1400m - 1:51.30 - (31.0)
1800m - 2:22.53 - (31.2)
2200m - 2:53.64 - (31.1)
2600m - 3:25.16 - (31.5)
3000m - 3:56.59 - (30.4)
3400m - 4:28.24 - (31.6)
3800m - 5:00.30 - (32.0)
4200m - 5:32.98 - (32.6)
4600m - 6:06.34 - (33.3)
5000m - 6:40.10 - (33.7)
14.55 0
11 31 Pascal  BRIAND FRA FRA 6:40.15200m - 19.49 - (19.4)
600m - 49.78 - (30.2)
1000m - 1:21.25 - (31.4)
1400m - 1:52.95 - (31.7)
1800m - 2:24.76 - (31.8)
2200m - 2:56.46 - (31.7)
2600m - 3:28.27 - (31.8)
3000m - 4:00.10 - (31.8)
3400m - 4:32.21 - (32.1)
3800m - 5:04.28 - (32.0)
4200m - 5:36.29 - (32.0)
4600m - 6:08.33 - (32.0)
5000m - 6:40.15 - (31.8)
14.60 0
12 49 Marco  CIGNINI ITA ITA 6:40.17200m - 19.26 - (19.2)
600m - 50.00 - (30.7)
1000m - 1:21.05 - (31.0)
1400m - 1:52.20 - (31.1)
1800m - 2:23.54 - (31.3)
2200m - 2:54.99 - (31.4)
2600m - 3:27.22 - (32.2)
3000m - 3:58.61 - (31.3)
3400m - 4:30.58 - (31.9)
3800m - 5:02.13 - (31.5)
4200m - 5:34.30 - (32.1)
4600m - 6:06.80 - (32.5)
5000m - 6:40.17 - (33.3)
14.62 0
13 2 Joshua  LOSE AUS AUS 6:41.27200m - 19.64 - (19.6)
600m - 50.24 - (30.6)
1000m - 1:20.95 - (30.7)
1400m - 1:52.10 - (31.1)
1800m - 2:23.29 - (31.1)
2200m - 2:54.53 - (31.2)
2600m - 3:26.11 - (31.5)
3000m - 3:58.22 - (33.0)
3400m - 4:30.57 - (32.3)
3800m - 5:03.07 - (32.5)
4200m - 5:35.64 - (32.5)
4600m - 6:08.36 - (32.7)
5000m - 6:41.27 - (32.9)
15.72 0
14 10 Lèo  LANDRY CAN CAN 6:41.33200m - 19.12 - (19.1)
600m - 49.45 - (30.3)
1000m - 1:20.75 - (31.3)
1400m - 1:52.23 - (24.4)
1800m - 2:23.60 - (31.3)
2200m - 2:55.22 - (31.6)
2600m - 3:26.89 - (31.6)
3000m - 3:58.68 - (31.7)
3400m - 4:30.45 - (31.7)
3800m - 5:02.56 - (32.1)
4200m - 5:35.08 - (32.5)
4600m - 6:07.95 - (32.8)
5000m - 6:41.33 - (33.3)
15.78 0
15 60 Shota  NAKAMURA JPN JPN 6:41.45200m - 19.49 - (19.4)
600m - 50.85 - (31.3)
1000m - 1:22.60 - (31.7)
1400m - 1:54.17 - (31.5)
1800m - 2:26.01 - (31.8)
2200m - 2:57.58 - (31.5)
2600m - 3:29.46 - (31.8)
3000m - 4:00.86 - (31.4)
3400m - 4:32.67 - (31.8)
3800m - 5:04.65 - (31.9)
4200m - 5:36.81 - (32.1)
4600m - 6:09.31 - (32.5)
5000m - 6:41.45 - (32.1)
15.90 0
16 48 Luca  STEFANI ITA ITA 6:41.76200m - 19.10 - (19.1)
600m - 50.19 - (31.0)
1000m - 1:21.39 - (31.2)
1400m - 1:52.86 - (31.4)
1800m - 2:24.21 - (31.3)
2200m - 2:55.93 - (31.7)
2600m - 3:27.78 - (31.8)
3000m - 3:59.94 - (32.1)
3400m - 4:32.04 - (32.1)
3800m - 5:04.35 - (32.3)
4200m - 5:36.93 - (32.5)
4600m - 6:09.33 - (32.4)
5000m - 6:41.76 - (32.4)
16.21 0
17 112 Slawomir  CHMURA POL POL 6:42.00200m - 20.07 - (20.0)
600m - 51.04 - (30.9)
1000m - 1:22.39 - (31.3)
1400m - 1:54.03 - (31.6)
1800m - 2:25.49 - (31.4)
2200m - 2:57.28 - (31.7)
2600m - 3:29.10 - (31.8)
3000m - 4:01.21 - (32.1)
3400m - 4:33.05 - (31.8)
3800m - 5:05.41 - (32.3)
4200m - 5:37.60 - (32.1)
4600m - 6:10.03 - (32.4)
5000m - 6:42.00 - (31.9)
16.45 0
18 59 Yuta  KIYAMA JPN JPN 6:43.44200m - 20.47 - (20.4)
600m - 51.99 - (31.5)
1000m - 1:22.96 - (30.9)
1400m - 1:54.13 - (31.1)
1800m - 2:25.66 - (31.5)
2200m - 2:57.28 - (31.6)
2600m - 3:29.26 - (31.9)
3000m - 4:01.16 - (31.9)
3400m - 4:33.38 - (32.2)
3800m - 5:05.60 - (32.2)
4200m - 5:38.13 - (32.5)
4600m - 6:10.58 - (32.4)
5000m - 6:43.44 - (32.8)
17.89 0
19 101 Tore  SOLLI NOR NOR 6:43.84200m - 20.02 - (20.0)
600m - 51.49 - (31.4)
1000m - 1:22.85 - (31.3)
1400m - 1:54.29 - (31.4)
1800m - 2:25.56 - (31.2)
2200m - 2:56.94 - (31.3)
2600m - 3:29.34 - (32.4)
3000m - 4:01.08 - (31.7)
3400m - 4:33.03 - (31.9)
3800m - 5:05.02 - (31.9)
4200m - 5:37.76 - (32.7)
4600m - 6:10.50 - (32.7)
5000m - 6:43.84 - (33.3)
18.29 0
20 68 Maxim  BAKLASHKIN KAZ KAZ 6:46.79200m - 20.07 - (20.0)
600m - 50.97 - (30.9)
1000m - 1:22.13 - (31.1)
1400m - 1:53.42 - (31.2)
1800m - 2:25.12 - (31.7)
2200m - 2:56.89 - (31.7)
2600m - 3:29.02 - (32.1)
3000m - 4:01.48 - (32.4)
3400m - 4:34.18 - (32.7)
3800m - 5:07.02 - (32.8)
4200m - 5:40.22 - (33.2)
4600m - 6:13.65 - (33.4)
5000m - 6:46.79 - (33.1)
21.24 0
21 7 Vitaly  MIKHAILOV BLR BLR 6:47.14200m - 19.44 - (19.4)
600m - 50.01 - (30.5)
1000m - 1:21.59 - (31.5)
1400m - 1:52.87 - (31.2)
1800m - 2:24.35 - (31.4)
2200m - 2:55.75 - (31.4)
2600m - 3:27.49 - (31.7)
3000m - 3:59.64 - (32.1)
3400m - 4:32.63 - (32.9)
3800m - 5:05.95 - (33.3)
4200m - 5:39.66 - (33.7)
4600m - 6:13.11 - (33.4)
5000m - 6:47.14 - (34.0)
21.59 0
22 127 Vladimir  SHIROKOV RUS RUS 6:52.65200m - 19.97 - (19.9)
600m - 51.52 - (31.5)
1000m - 1:23.35 - (31.8)
1400m - 1:55.07 - (31.7)
1800m - 2:27.19 - (32.1)
2200m - 2:59.31 - (32.1)
2600m - 3:31.95 - (32.6)
3000m - 4:05.00 - (33.0)
3400m - 4:38.51 - (38.5)
3800m - 5:12.12 - (33.6)
4200m - 5:46.09 - (33.9)
4600m - 6:19.64 - (33.5)
5000m - 6:52.65 - (33.0)
27.10 0
23 29 Niko  RÄSÄNEN FIN FIN 6:54.33200m - 19.58 - (19.5)
600m - 51.20 - (31.6)
1000m - 1:23.08 - (31.8)
1400m - 1:55.59 - (32.5)
1800m - 2:27.59 - (32.0)
2200m - 2:59.83 - (32.2)
2600m - 3:32.53 - (32.7)
3000m - 4:05.40 - (32.8)
3400m - 4:38.32 - (32.9)
3800m - 5:11.78 - (33.4)
4200m - 5:45.82 - (34.0)
4600m - 6:20.19 - (34.3)
5000m - 6:54.33 - (34.1)
28.78 0
24 22 Longjiang  SUN CHN CHN 6:56.11200m - 19.79 - (19.7)
600m - 51.56 - (31.7)
1000m - 1:23.76 - (32.2)
1400m - 1:56.05 - (32.2)
1800m - 2:28.31 - (32.2)
2200m - 3:00.66 - (32.3)
2600m - 3:33.04 - (32.3)
3000m - 4:05.69 - (32.6)
3400m - 4:38.66 - (32.9)
3800m - 5:11.99 - (33.3)
4200m - 5:46.07 - (34.0)
4600m - 6:20.54 - (34.4)
5000m - 6:56.11 - (35.5)
30.56 0
25 25 Zdenek  HASELBERGER CZE CZE 6:57.20200m - 19.72 - (19.7)
600m - 50.74 - (31.0)
1000m - 1:22.15 - (31.4)
1400m - 1:54.18 - (32.0)
1800m - 2:26.52 - (32.3)
2200m - 2:58.90 - (32.3)
2600m - 3:31.59 - (32.6)
3000m - 4:05.07 - (33.4)
3400m - 4:39.11 - (34.0)
3800m - 5:13.33 - (34.2)
4200m - 5:47.69 - (34.3)
4600m - 6:22.54 - (34.8)
5000m - 6:57.20 - (34.6)
31.65 0
26 78 Galbaatar  UUGANBAATAR MGL MGL 7:11.95200m - 19.53 - (19.5)
600m - 50.26 - (30.7)
1000m - 1:22.02 - (31.7)
1400m - 1:54.65 - (32.6)
1800m - 2:27.78 - (33.1)
2200m - 3:02.20 - (34.4)
2600m - 3:36.87 - (34.6)
3000m - 4:11.90 - (35.0)
3400m - 4:46.87 - (34.9)
3800m - 5:22.66 - (35.7)
4200m - 5:59.16 - (36.4)
4600m - 6:35.13 - (35.9)
5000m - 7:11.95 - (36.8)
46.40 0
27 126 Aleksandr  RUMYANTSEV RUS RUS 7:26.98200m - 18.90 - (18.8)
600m - 48.85 - (29.9)
1000m - 1:18.86 - (30.0)
1400m - 1:49.37 - (30.5)
1800m - 2:19.50 - (30.1)
2200m - 2:49.83 - (30.3)
2600m - 3:20.00 - (30.1)
3000m - 3:50.33 - (30.3)
3400m - 4:20.49 - (30.1)
3800m - 4:50.94 - (30.4)
4200m - 5:22.05 - (31.1)
4600m - 6:47.34 - (85.2)
5000m - 7:26.98 - (39.6)
61.43 0
28 118 Marian Cristian  ION ROU ROU DQ200m - 20.26 - (20.2)
600m - 53.16 - (32.8)
1000m - 1:26.35 - (33.1)
1400m - 1:59.55 - (33.2)
1800m - 2:32.98 - (33.4)
2200m - 3:06.52 - (33.5)
2600m - 3:40.15 - (33.6)
3000m - 4:13.73 - (33.5)
3400m - 4:47.41 - (33.6)
3800m - 5:21.25 - (33.8)
4200m - 5:55.13 - (33.8)
4600m - 6:28.82 - (33.6)
5000m - 7:02.60 - (33.7)
0